Date String (YYYY-MM-DD hh:mm:ss) UTC,Instrument flags,absolute air pressure of the measurement (hPa),sample flow rate (lpm),inlet stack bypass flow (lpm),air temperature of the measurement (°C),ambient temperature measured by the external sensor (°C),aerosol sample conditioner tube jacket temperature (°C),OPC LED temperature (°C),internal box temperature (°C),relative humidity of the measurement (%),span deviation,mass concentration of particles derived from Lorenz-Mie calculation of OPC scattering (μg/m³),mass concentration of particles derived from Lorenz-Mie calculation of OPC scattering (μg/m³),mass concentration of particles derived from Lorenz-Mie calculation of OPC scattering (μg/m³)
DateTimeUTC,F1_M11,P_M11,Q1_M11,Q2_M11,T1_M11,T2_M11,T3_M11,T4_M11,T5_M11,U1_M11,ZSPAN_M11,X0_M11,X2_M11,X1_M11
2023-09-16 00:00:00,SystemResetWarning,0836.2,4.99,000.00,028.3,027.2,000.0,036.5,030.1,24.1,0000.0,0008.57,0004.49,0003.92
2023-09-16 00:01:00,SystemResetWarning,0836.2,5.01,000.00,028.4,027.2,000.0,036.6,030.1,24.6,0000.0,0008.30,0004.47,0003.92
2023-09-16 00:02:00,SystemResetWarning,0836.2,5.01,000.00,028.4,027.2,000.0,036.6,030.1,24.6,0000.0,0008.53,0004.48,0003.92
2023-09-16 00:03:00,SystemResetWarning,0836.2,5.01,000.00,028.4,027.3,000.0,036.6,030.1,24.6,0001.4,0008.40,0004.48,0003.92
2023-09-16 00:04:00,SystemResetWarning,0836.2,4.98,000.00,028.4,026.4,000.0,036.6,029.9,24.2,0001.8,0008.28,0004.46,0003.91
2023-09-16 00:05:00,SystemResetWarning,0836.2,5.00,000.00,028.3,024.8,000.0,036.5,029.5,24.4,0000.1,0008.25,0004.46,0003.90
2023-09-16 00:06:00,SystemResetWarning,0836.1,5.02,000.00,028.2,024.4,000.0,036.5,029.4,24.7,0000.0,0008.07,0004.43,0003.90
2023-09-16 00:07:00,SystemResetWarning,0836.1,4.99,000.00,028.1,024.6,000.0,036.5,029.4,25.1,0000.0,0008.30,0004.43,0003.89
2023-09-16 00:08:00,SystemResetWarning,0836.2,5.00,000.00,028.0,024.9,000.0,036.5,029.4,25.4,0000.0,0008.72,0004.41,0003.90
2023-09-16 00:09:00,SystemResetWarning,0836.2,5.00,000.00,028.0,025.2,000.0,036.4,029.5,25.3,0000.0,0008.53,0004.40,0003.90
2023-09-16 00:10:00,SystemResetWarning,0836.2,5.00,000.00,028.0,025.6,000.0,036.4,029.5,25.2,0000.0,0008.33,0004.38,0003.90
2023-09-16 00:11:00,SystemResetWarning,0836.2,4.99,000.00,028.0,025.8,000.0,036.4,029.6,25.2,0000.0,0008.72,0004.39,0003.90
2023-09-16 00:12:00,SystemResetWarning,0836.2,5.00,000.00,028.0,026.1,000.0,036.4,029.6,25.4,0000.0,0008.81,0004.41,0003.90
2023-09-16 00:13:00,SystemResetWarning,0836.2,5.00,000.00,028.0,026.3,000.0,036.4,029.7,25.4,0000.1,0008.52,0004.37,0003.89
2023-09-16 00:14:00,SystemResetWarning,0836.2,5.00,000.00,028.1,026.4,000.0,036.4,029.7,24.9,0000.0,0008.39,0004.34,0003.89
2023-09-16 00:15:00,SystemResetWarning,0836.2,5.00,000.00,028.1,026.6,000.0,036.4,029.8,24.7,0000.0,0008.34,0004.33,0003.90
2023-09-16 00:16:00,SystemResetWarning,0836.2,5.00,000.00,028.1,026.7,000.0,036.4,029.8,24.8,0000.0,0008.34,0004.32,0003.91
2023-09-16 00:17:00,SystemResetWarning,0836.2,5.00,000.00,028.1,026.8,000.0,036.4,029.8,24.9,0000.0,0008.39,0004.34,0003.92
2023-09-16 00:18:00,SystemResetWarning,0836.2,5.01,000.00,028.2,026.8,000.0,036.4,029.9,24.7,0000.0,0008.21,0004.36,0003.93
2023-09-16 00:19:00,SystemResetWarning,0836.2,5.00,000.00,028.2,026.9,000.0,036.4,029.9,24.7,0000.0,0007.66,0004.37,0003.92
2023-09-16 00:20:00,SystemResetWarning,0836.2,4.99,000.00,028.2,027.0,000.0,036.5,029.9,24.4,0000.0,0007.58,0004.33,0003.92
2023-09-16 00:21:00,SystemResetWarning,0836.2,4.99,000.00,028.2,027.0,000.0,036.5,030.0,24.1,0000.0,0007.60,0004.31,0003.91
2023-09-16 00:22:00,SystemResetWarning,0836.2,5.00,000.00,028.3,027.1,000.0,036.5,030.0,23.8,0000.0,0007.75,0004.31,0003.90
2023-09-16 00:23:00,SystemResetWarning,0836.2,5.00,000.00,028.3,027.1,000.0,036.5,030.0,24.0,0000.0,0007.45,0004.27,0003.90
2023-09-16 00:24:00,SystemResetWarning,0836.2,5.00,000.00,028.3,027.1,000.0,036.5,030.0,24.1,0000.0,0007.52,0004.29,0003.91
2023-09-16 00:25:00,SystemResetWarning,0836.2,5.00,000.00,028.4,027.2,000.0,036.6,030.1,23.8,0000.0,0007.63,0004.30,0003.91
2023-09-16 00:26:00,SystemResetWarning,0836.2,5.00,000.00,028.4,027.2,000.0,036.6,030.1,23.8,0000.0,0007.74,0004.33,0003.91
2023-09-16 00:27:00,SystemResetWarning,0836.2,5.00,000.00,028.4,027.2,000.0,036.6,030.1,23.9,0000.0,0007.71,0004.31,0003.90
2023-09-16 00:28:00,SystemResetWarning,0836.2,5.00,000.00,028.4,027.2,000.0,036.6,030.1,23.8,0000.0,0007.76,0004.31,0003.89
2023-09-16 00:29:00,SystemResetWarning,0836.2,5.00,000.00,028.5,027.3,000.0,036.7,030.2,23.5,0000.0,0007.69,0004.28,0003.89
2023-09-16 00:30:00,SystemResetWarning,0836.2,5.00,000.00,028.5,027.3,000.0,036.7,030.2,23.6,0000.0,0007.65,0004.25,0003.89
2023-09-16 00:31:00,SystemResetWarning,0836.2,5.00,000.00,028.5,027.3,000.0,036.7,030.2,23.5,0000.0,0007.65,0004.24,0003.89
2023-09-16 00:32:00,SystemResetWarning,0836.2,4.98,000.00,028.5,025.9,000.0,036.7,029.8,23.5,0000.0,0007.75,0004.26,0003.89
2023-09-16 00:33:00,SystemResetWarning,0836.2,5.01,000.00,028.3,024.6,000.0,036.6,029.5,23.5,0000.0,0007.52,0004.29,0003.89
2023-09-16 00:34:00,SystemResetWarning,0836.2,5.01,000.00,028.2,024.4,000.0,036.6,029.4,23.6,0000.0,0007.62,0004.33,0003.89
2023-09-16 00:35:00,SystemResetWarning,0836.2,5.00,000.00,028.1,024.6,000.0,036.6,029.4,23.6,0000.0,0007.66,0004.35,0003.89
2023-09-16 00:36:00,SystemResetWarning,0836.2,5.00,000.00,028.1,024.9,000.0,036.5,029.4,23.7,0000.0,0007.63,0004.37,0003.89
2023-09-16 00:37:00,SystemResetWarning,0836.2,5.00,000.00,028.0,025.3,000.0,036.5,029.5,23.7,0000.0,0007.60,0004.36,0003.89
2023-09-16 00:38:00,SystemResetWarning,0836.2,5.00,000.00,028.0,025.6,000.0,036.5,029.6,24.0,0000.0,0007.56,0004.35,0003.88
2023-09-16 00:39:00,SystemResetWarning,0836.2,5.00,000.00,028.0,025.8,000.0,036.5,029.6,24.2,0000.0,0007.64,0004.39,0003.89
2023-09-16 00:40:00,SystemResetWarning,0836.3,5.00,000.00,028.1,026.1,000.0,036.5,029.7,24.4,0000.0,0007.61,0004.38,0003.88
2023-09-16 00:41:00,SystemResetWarning,0836.3,5.00,000.00,028.1,026.2,000.0,036.5,029.7,24.2,0000.0,0007.84,0004.42,0003.88
2023-09-16 00:42:00,SystemResetWarning,0836.2,4.99,000.00,028.1,026.4,000.0,036.5,029.7,24.1,0000.0,0008.05,0004.48,0003.89
2023-09-16 00:43:00,SystemResetWarning,0836.3,4.99,000.00,028.1,026.5,000.0,036.5,029.8,24.0,0000.0,0008.23,0004.54,0003.90
2023-09-16 00:44:00,SystemResetWarning,0836.3,5.00,000.00,028.1,026.6,000.0,036.5,029.8,24.2,0000.0,0008.51,0004.52,0003.92
2023-09-16 00:45:00,SystemResetWarning,0836.3,5.00,000.00,028.1,026.7,000.0,036.5,029.8,24.0,0000.0,0008.44,0004.52,0003.93
2023-09-16 00:46:00,SystemResetWarning,0836.2,5.01,000.00,028.2,026.8,000.0,036.5,029.8,24.0,0000.0,0008.42,0004.53,0003.95
2023-09-16 00:47:00,SystemResetWarning,0836.3,5.01,000.00,028.2,026.8,000.0,036.5,029.9,23.9,0000.0,0008.51,0004.52,0003.96
2023-09-16 00:48:00,SystemResetWarning,0836.3,4.99,000.00,028.2,026.9,000.0,036.5,029.9,23.9,0000.0,0008.65,0004.52,0003.97
2023-09-16 00:49:00,SystemResetWarning,0836.2,4.99,000.00,028.2,027.0,000.0,036.5,029.9,23.8,0000.8,0008.77,0004.53,0003.99
2023-09-16 00:50:00,SystemResetWarning,0836.2,5.00,000.00,028.3,027.0,000.0,036.5,030.0,23.7,0001.9,0009.77,0004.53,0004.00
2023-09-16 00:51:00,SystemResetWarning,0836.3,5.00,000.00,028.3,027.0,000.0,036.5,030.0,23.4,0001.5,0009.84,0004.56,0004.01
2023-09-16 00:52:00,SystemResetWarning,0836.3,5.00,000.00,028.3,027.1,000.0,036.6,030.0,23.6,0001.2,0009.69,0004.55,0004.02
2023-09-16 00:53:00,SystemResetWarning,0836.3,5.01,000.00,028.3,027.1,000.0,036.6,030.0,23.5,0000.5,0010.04,0004.50,0004.01
2023-09-16 00:54:00,SystemResetWarning,0836.2,5.00,000.00,028.3,027.1,000.0,036.6,030.0,23.6,0000.0,0010.90,0004.47,0004.00
2023-09-16 00:55:00,SystemResetWarning,0836.3,5.00,000.00,028.3,027.1,000.0,036.6,030.0,23.7,0000.0,0010.60,0004.48,0004.01
2023-09-16 00:56:00,SystemResetWarning,0836.3,5.00,000.00,028.4,027.2,000.0,036.6,030.0,23.7,0000.0,0010.65,0004.48,0004.00
2023-09-16 00:57:00,SystemResetWarning,0836.2,4.99,000.00,028.4,027.2,000.0,036.7,030.0,23.7,0000.0,0010.73,0004.46,0003.99
2023-09-16 00:58:00,SystemResetWarning,0836.3,5.00,000.00,028.4,027.2,000.0,036.7,030.1,23.6,0000.0,0011.35,0004.43,0003.97
2023-09-16 00:59:00,SystemResetWarning,0836.3,5.00,000.00,028.4,027.2,000.0,036.7,030.1,23.5,0000.0,0011.67,0004.42,0003.96
